Вернуться в каталог

DELTA 1 DEB

АктивенPO
NORAD 13572·DEBRIS·🇺🇸 United States

Запущен Mar 5, 1978 с Vandenberg Space Force Base

Loading…

Ближайшие Пролёты (ближайшие 24 часа)

TLE

СвежийSource: Space-Track

Эпоха: Sep 14, 2026, 10:34 UTC

1 13572U 78026FK  26257.44072880  .00005351  00000-0  11317-2 0  9995
2 13572  99.0834  69.0620 0085975 240.4264 140.1980 14.57469446326994

Отслеживайте DELTA 1 DEB в реальном времени с AllMySat

Download on the App Store